Randolph AFB, TX

4:21 AM CDT on September 24, 2017 (GMT -0500)
Randolph Air Force Base

Weather History for KRND - January, 2013

Change the Weather History Date:

Wednesday, January 9, 2013

  Actual Average Record
Temperature  
Mean Temperature 57 °F -  
Max Temperature 64 °F 60 °F 80 °F (2009)
Min Temperature 50 °F 41 °F 26 °F (1999)
Degree Days  
Heating Degree Days 8    
Growing Degree Days 7 (Base 50)    
Moisture  
Dew Point 55 °F    
Average Humidity 99    
Maximum Humidity 100    
Minimum Humidity 82    
Precipitation  
Precipitation 0.39 in - - ()
Sea Level Pressure  
Sea Level Pressure 29.95 in    
Wind  
Wind Speed 10 mph (NNW)    
Max Wind Speed 22 mph    
Max Gust Speed 36 mph    
Visibility 7 miles    
Events Rain , Thunderstorm    
Averages and records for this station are not official NWS values.
T = Trace of Precipitation, MM = Missing Value Source: NWS Daily Summary

Daily Weather History Graph

Daily Weather History Graph

Search for Another Location

Airport or City:

Trip Planner

Search our weather history database for the weather conditions in past years. The results will help you decide how hot, cold, wet, or windy it might be!

Date:

Astronomy

Jan. 09, 2013 Rise Set
Actual Time 7:29 AM CST 5:51 PM CST
Civil Twilight 7:03 AM CST 6:17 PM CST
Nautical Twilight 6:33 AM CST 6:47 PM CST
Astronomical Twilight 6:04 AM CST 7:16 PM CST
Moon 5:09 AM CST (1/9) 3:55 PM CST (1/9)
Length of Visible Light 11h 14m
Length of Day
10h 22m
Waning Crescent, 6% of the Moon is Illuminated
Jan 9
Waning Crescent
Jan 11
New
Jan 18
First Quarter
Jan 26
Full
Feb 3
Last Quarter

Hourly Weather History & Observations

Time (CST) Temp. Dew Point Humidity Pressure Visibility Wind Dir Wind Speed Gust Speed Precip Events Conditions
12:13 AM 53.6 °F 53.6 °F 100% 29.91 in 7.0 mi NNE 12.7 mph - N/A Rain Rain
12:23 AM 53.6 °F 53.6 °F 100% 29.92 in 10.0 mi NNE 9.2 mph - N/A Rain Light Rain
12:27 AM 53.6 °F 53.6 °F 100% 29.93 in 7.0 mi NNE 9.2 mph - N/A Rain Light Rain
12:32 AM 53.6 °F 53.6 °F 100% 29.94 in 5.0 mi North 9.2 mph - N/A Rain Heavy Rain
12:36 AM 53.6 °F 53.6 °F 100% 29.94 in 5.0 mi North 10.4 mph - N/A Rain , Thunderstorm Heavy Thunderstorms and Rain
12:39 AM 53.6 °F 53.6 °F 100% 29.93 in 7.0 mi NNE 8.1 mph - N/A Rain , Thunderstorm Heavy Thunderstorms and Rain
12:46 AM 53.6 °F 53.6 °F 100% 29.94 in 4.0 mi West 3.5 mph - N/A Rain , Thunderstorm Heavy Thunderstorms and Rain
12:47 AM 53.6 °F 53.6 °F 100% 29.94 in 4.0 mi Variable 4.6 mph - N/A Rain , Thunderstorm Heavy Thunderstorms and Rain
12:49 AM 53.6 °F 53.6 °F 100% 29.94 in 2.5 mi Calm Calm - N/A Rain , Thunderstorm Heavy Thunderstorms and Rain
12:50 AM 53.6 °F 53.6 °F 100% 29.94 in 2.5 mi Calm Calm - N/A Rain , Thunderstorm Heavy Thunderstorms and Rain
12:51 AM 53.6 °F 53.6 °F 100% 29.94 in 2.0 mi Variable 3.5 mph - N/A Rain , Thunderstorm Heavy Thunderstorms and Rain
12:52 AM 53.6 °F 53.6 °F 100% 29.94 in 2.0 mi NW 4.6 mph - N/A Rain , Thunderstorm Heavy Thunderstorms and Rain
12:54 AM 53.6 °F 53.6 °F 100% 29.94 in 1.8 mi Variable 4.6 mph - N/A Rain , Thunderstorm Heavy Thunderstorms and Rain
12:55 AM 54.0 °F 54.0 °F 100% 29.95 in 1.8 mi NW 5.8 mph - 0.03 in Rain , Thunderstorm Heavy Thunderstorms and Rain
12:56 AM 53.6 °F 53.6 °F 100% 29.95 in 2.0 mi NW 6.9 mph - N/A Rain , Thunderstorm Heavy Thunderstorms and Rain
12:57 AM 53.6 °F 53.6 °F 100% 29.95 in 2.0 mi NW 9.2 mph - N/A Rain , Thunderstorm Heavy Thunderstorms and Rain
12:58 AM 53.6 °F 53.6 °F 100% 29.95 in 2.0 mi NW 9.2 mph - N/A Rain , Thunderstorm Heavy Thunderstorms and Rain
1:01 AM 53.6 °F 53.6 °F 100% 29.97 in 3.0 mi WSW 8.1 mph - N/A Rain , Thunderstorm Heavy Thunderstorms and Rain
1:07 AM 53.6 °F 53.6 °F 100% 29.97 in 2.5 mi NW 8.1 mph - N/A Rain , Thunderstorm Heavy Thunderstorms and Rain
1:08 AM 53.6 °F 53.6 °F 100% 29.97 in 2.5 mi NW 6.9 mph - N/A Rain , Thunderstorm Heavy Thunderstorms and Rain
1:09 AM 53.6 °F 53.6 °F 100% 29.97 in 2.5 mi NNW 5.8 mph - N/A Rain , Thunderstorm Heavy Thunderstorms and Rain
1:11 AM 53.6 °F 53.6 °F 100% 29.98 in 2.0 mi NW 6.9 mph - N/A Rain , Thunderstorm Heavy Thunderstorms and Rain
1:13 AM 53.6 °F 53.6 °F 100% 29.98 in 2.0 mi NW 8.1 mph - N/A Rain Heavy Rain
1:15 AM 53.6 °F 53.6 °F 100% 29.98 in 2.0 mi NW 9.2 mph - N/A Rain Heavy Rain
1:19 AM 53.6 °F 53.6 °F 100% 29.96 in 3.0 mi NNW 11.5 mph - N/A Rain Heavy Rain
1:20 AM 53.6 °F 53.6 °F 100% 29.96 in 3.0 mi NNW 12.7 mph - N/A Rain Heavy Rain
1:26 AM 53.6 °F 53.6 °F 100% 29.94 in 5.0 mi North 15.0 mph - N/A Rain Heavy Rain
1:27 AM 53.6 °F 53.6 °F 100% 29.94 in 5.0 mi North 15.0 mph - N/A Rain Heavy Rain
1:28 AM 53.6 °F 53.6 °F 100% 29.94 in 6.0 mi North 15.0 mph - N/A Rain Heavy Rain
1:37 AM 55.4 °F 55.4 °F 100% 29.93 in 9.0 mi North 17.3 mph - N/A Rain Heavy Rain
1:42 AM 53.6 °F 53.6 °F 100% 29.93 in 9.0 mi NNW 16.1 mph - N/A Rain Heavy Rain
1:50 AM 53.6 °F 53.6 °F 100% 29.93 in 4.0 mi North 15.0 mph 23.0 mph N/A Rain Heavy Rain
1:51 AM 53.6 °F 53.6 °F 100% 29.93 in 4.0 mi North 15.0 mph 23.0 mph N/A Rain Heavy Rain
1:55 AM 53.8 °F 53.8 °F 100% 29.93 in 4.0 mi North 16.1 mph 23.0 mph 0.05 in Rain Heavy Rain
1:58 AM 53.6 °F 53.6 °F 100% 29.92 in 5.0 mi North 19.6 mph 25.3 mph N/A Rain Heavy Rain
2:03 AM 53.6 °F 53.6 °F 100% 29.92 in 5.0 mi North 15.0 mph 25.3 mph N/A Rain Heavy Rain
2:07 AM 53.6 °F 53.6 °F 100% 29.92 in 7.0 mi North 13.8 mph - N/A Rain Heavy Rain
2:23 AM 53.6 °F 53.6 °F 100% 29.92 in 8.0 mi NNE 17.3 mph 21.9 mph N/A Rain Rain
2:25 AM 53.6 °F 53.6 °F 100% 29.92 in 8.0 mi North 16.1 mph 21.9 mph N/A Rain Rain
2:31 AM 53.6 °F 53.6 °F 100% 29.91 in 9.0 mi NNE 16.1 mph 21.9 mph N/A Rain Rain
2:55 AM 53.8 °F 53.8 °F 100% 29.89 in 10.0 mi North 17.3 mph - 0.13 in Rain Rain
3:00 AM 53.6 °F 53.6 °F 100% 29.90 in 10.0 mi North 16.1 mph - N/A Rain Light Rain
3:03 AM 53.6 °F 53.6 °F 100% 29.90 in 10.0 mi North 13.8 mph - N/A Rain Light Rain
3:21 AM 53.6 °F 53.6 °F 100% 29.90 in 10.0 mi North 15.0 mph 24.2 mph N/A Rain Rain
3:29 AM 53.6 °F 53.6 °F 100% 29.92 in 10.0 mi North 11.5 mph 20.7 mph N/A Rain Light Rain
3:35 AM 53.6 °F 53.6 °F 100% 29.92 in 10.0 mi North 15.0 mph 21.9 mph N/A Rain Light Rain
3:36 AM 53.6 °F 53.6 °F 100% 29.92 in 10.0 mi North 18.4 mph 21.9 mph N/A   Light Drizzle
3:55 AM 54.3 °F 54.3 °F 100% 29.91 in 9.0 mi NNE 16.1 mph - 0.02 in Rain Rain
3:56 AM 53.6 °F 53.6 °F 100% 29.91 in 9.0 mi NNE 16.1 mph - N/A Rain Light Rain
4:02 AM 53.6 °F 53.6 °F 100% 29.91 in 10.0 mi NNE 16.1 mph 24.2 mph N/A Rain Light Rain
4:05 AM 53.6 °F 53.6 °F 100% 29.90 in 10.0 mi NNE 18.4 mph 24.2 mph N/A Rain Light Rain
4:08 AM 53.6 °F 53.6 °F 100% 29.90 in 10.0 mi NNE 16.1 mph 24.2 mph N/A Rain Light Rain
4:55 AM 54.9 °F 54.9 °F 100% 29.88 in 10.0 mi North 21.9 mph 28.8 mph 0.00 in Rain Rain
5:15 AM 55.4 °F 55.4 °F 100% 29.88 in 10.0 mi North 16.1 mph 23.0 mph N/A Rain Heavy Rain
5:18 AM 55.4 °F 55.4 °F 100% 29.88 in 10.0 mi North 16.1 mph 23.0 mph N/A Rain Rain
5:20 AM 55.4 °F 55.4 °F 100% 29.88 in 10.0 mi North 17.3 mph 23.0 mph N/A Rain Rain
5:25 AM 55.4 °F 55.4 °F 100% 29.87 in 10.0 mi North 15.0 mph - N/A Rain Light Rain
5:28 AM 55.4 °F 55.4 °F 100% 29.88 in 10.0 mi North 15.0 mph - N/A Rain Light Rain
5:29 AM 55.4 °F 55.4 °F 100% 29.88 in 10.0 mi North 15.0 mph - N/A Rain Light Rain
5:54 AM 55.4 °F 55.4 °F 100% 29.94 in 10.0 mi West 11.5 mph - N/A Rain Light Rain
5:55 AM 55.6 °F 55.6 °F 100% 29.94 in 9.0 mi West 11.5 mph - 0.08 in Rain Light Rain
5:59 AM 55.4 °F 55.4 °F 100% 29.93 in 4.0 mi NNW 9.2 mph - N/A Rain Light Rain
6:05 AM 55.4 °F 55.4 °F 100% 29.92 in 3.0 mi North 13.8 mph - N/A Rain Heavy Rain
6:08 AM 55.4 °F 55.4 °F 100% 29.92 in 4.0 mi North 12.7 mph - N/A Rain Heavy Rain
6:09 AM 55.4 °F 55.4 °F 100% 29.92 in 5.0 mi North 13.8 mph - N/A Rain Heavy Rain
6:15 AM 55.4 °F 55.4 °F 100% 29.92 in 9.0 mi NNW 12.7 mph - N/A Rain Light Rain
6:55 AM 56.1 °F 56.1 °F 100% 29.92 in 7.0 mi North 11.5 mph - 0.03 in Rain Light Rain
7:27 AM 57.2 °F 57.2 °F 100% 29.96 in 7.0 mi NW 11.5 mph - N/A   Light Drizzle
7:30 AM 57.2 °F 57.2 °F 100% 29.96 in 10.0 mi NW 11.5 mph - N/A Rain Light Rain
7:39 AM 57.2 °F 57.2 °F 100% 29.96 in 4.0 mi WNW 11.5 mph - N/A Rain Heavy Rain
7:48 AM 57.2 °F 57.2 °F 100% 29.93 in 5.0 mi NNW 18.4 mph - N/A Rain Light Rain
7:55 AM 56.7 °F 56.7 °F 100% 29.92 in 5.0 mi North 19.6 mph - 0.02 in Rain Light Rain
8:01 AM 57.2 °F 57.2 °F 100% 29.93 in 5.0 mi North 17.3 mph - N/A Rain Light Rain
8:55 AM 57.6 °F 57.6 °F 100% 29.97 in 7.0 mi NNW 13.8 mph - 0.00 in Rain Light Rain
9:15 AM 57.2 °F 57.2 °F 100% 29.95 in 10.0 mi North 13.8 mph - N/A   Scattered Clouds
9:47 AM 59.0 °F 59.0 °F 100% 29.96 in 7.0 mi NNW 11.5 mph - N/A   Light Drizzle
9:55 AM 58.3 °F 58.3 °F 100% 29.98 in 10.0 mi NNW 10.4 mph - 0.02 in   Light Drizzle
10:08 AM 59.0 °F 59.0 °F 100% 30.01 in 10.0 mi NNW 4.6 mph - N/A   Mostly Cloudy
10:13 AM 59.0 °F 59.0 °F 100% 30.01 in 7.0 mi NNW 4.6 mph - N/A Rain Light Rain
10:15 AM - 59.0 °F N/A% 30.01 in 7.0 mi NNW 4.6 mph - N/A Rain Light Rain
10:55 AM 59.2 °F 59.0 °F 99% 30.03 in 7.0 mi North 13.8 mph - 0.01 in   Light Drizzle
11:51 AM 59.0 °F 59.0 °F 100% 29.84 in 10.0 mi NNE 18.4 mph 35.7 mph N/A   Light Drizzle
11:55 AM 58.8 °F 58.5 °F 99% 29.85 in 10.0 mi NNE 16.1 mph 31.1 mph 0.00 in   Mostly Cloudy
12:55 PM 59.7 °F 59.5 °F 99% 29.86 in 10.0 mi NNE 12.7 mph - N/A   Mostly Cloudy
1:23 PM 60.8 °F 59.0 °F 94% 29.86 in 10.0 mi NNE 6.9 mph - N/A   Mostly Cloudy
1:33 PM 60.8 °F 59.0 °F 94% 29.88 in 10.0 mi ENE 5.8 mph - N/A   Mostly Cloudy
1:55 PM 60.8 °F 59.4 °F 95% 29.90 in 10.0 mi Calm Calm - N/A   Overcast
2:33 PM 62.6 °F 59.0 °F 88% 29.88 in 10.0 mi Calm Calm - N/A   Overcast
2:55 PM 62.4 °F 58.5 °F 87% 29.90 in 10.0 mi Calm Calm - N/A   Mostly Cloudy
3:00 PM 62.6 °F 59.0 °F 88% 29.89 in 10.0 mi Calm Calm - N/A   Mostly Cloudy
3:22 PM 62.6 °F 59.0 °F 88% 29.91 in 10.0 mi Calm Calm - N/A   Overcast
3:45 PM 62.6 °F 57.2 °F 82% 29.93 in 10.0 mi Calm Calm - N/A   Overcast
3:55 PM 63.0 °F 58.5 °F 85% 29.92 in 10.0 mi Calm Calm - N/A   Mostly Cloudy
4:55 PM 63.7 °F 58.5 °F 83% 29.94 in 10.0 mi SSE 5.8 mph - N/A   Mostly Cloudy
5:03 PM 64.4 °F 59.0 °F 83% 29.94 in 10.0 mi SSE 5.8 mph - N/A   Scattered Clouds
5:55 PM 57.2 °F 57.0 °F 99% 29.95 in 10.0 mi Calm Calm - N/A   Scattered Clouds
6:38 PM 55.4 °F 55.4 °F 100% 29.96 in 10.0 mi Calm Calm - N/A   Mostly Cloudy
6:54 PM 55.4 °F 55.4 °F 100% 29.97 in 10.0 mi Calm Calm - N/A   Overcast
6:55 PM 55.6 °F 55.6 °F 100% 29.97 in 10.0 mi Calm Calm - N/A   Overcast
7:51 PM 59.0 °F 57.2 °F 94% 29.99 in 10.0 mi Calm Calm - N/A   Overcast
7:55 PM 58.1 °F 57.9 °F 99% 29.99 in 10.0 mi Calm Calm - N/A   Overcast
8:03 PM 57.2 °F 57.2 °F 100% 29.99 in 10.0 mi East 3.5 mph - N/A   Overcast
8:27 PM 57.2 °F 57.2 °F 100% 29.99 in 10.0 mi South 6.9 mph - N/A   Mostly Cloudy
8:29 PM 57.2 °F 57.2 °F 100% 29.99 in 10.0 mi South 8.1 mph - N/A   Mostly Cloudy
8:55 PM 57.2 °F 56.8 °F 99% 29.99 in 10.0 mi SSW 8.1 mph - N/A   Clear
9:24 PM 57.2 °F 57.2 °F 100% 30.01 in 10.0 mi SW 9.2 mph - N/A   Mostly Cloudy
9:33 PM 57.2 °F 57.2 °F 100% 30.02 in 10.0 mi SW 16.1 mph 24.2 mph N/A   Mostly Cloudy
9:40 PM 57.2 °F 55.4 °F 94% 30.02 in 10.0 mi WSW 12.7 mph 24.2 mph N/A   Overcast
9:51 PM 55.4 °F 55.4 °F 100% 30.02 in 10.0 mi WSW 5.8 mph - N/A   Scattered Clouds
9:55 PM 55.8 °F 55.6 °F 99% 30.02 in 10.0 mi WSW 5.8 mph - N/A   Scattered Clouds
10:55 PM 52.3 °F 52.2 °F 99% 30.01 in 10.0 mi SW 3.5 mph - N/A   Clear
11:09 PM 51.8 °F 51.8 °F 100% 30.01 in 4.0 mi Calm Calm - N/A   Clear
11:11 PM 51.8 °F 51.8 °F 100% 30.01 in 2.5 mi Calm Calm - N/A   Clear
11:13 PM 51.8 °F 51.8 °F 100% 30.01 in 1.8 mi Calm Calm - N/A   Clear
11:16 PM 50.0 °F 50.0 °F 100% 30.01 in 1.5 mi Calm Calm - N/A   Clear
11:17 PM 50.0 °F 50.0 °F 100% 30.01 in 1.5 mi Calm Calm - N/A   Clear
11:20 PM 50.0 °F 48.2 °F 94% 30.01 in 1.2 mi Calm Calm - N/A   Clear
11:24 PM 50.0 °F 50.0 °F 100% 30.01 in 1.0 mi SSW 3.5 mph - N/A   Clear
11:25 PM 50.0 °F 50.0 °F 100% 30.01 in 1.0 mi SSW 3.5 mph - N/A   Clear
11:28 PM 51.8 °F 51.8 °F 100% 30.01 in 1.0 mi SSW 4.6 mph - N/A   Clear
11:30 PM 51.8 °F 51.8 °F 100% 30.01 in 1.0 mi SW 4.6 mph - N/A   Clear
11:31 PM 51.8 °F 51.8 °F 100% 30.01 in 1.2 mi SW 5.8 mph - N/A   Clear
11:32 PM 51.8 °F 51.8 °F 100% 30.01 in 1.2 mi SW 5.8 mph - N/A   Clear
11:33 PM 51.8 °F 51.8 °F 100% 30.01 in 1.5 mi SW 5.8 mph - N/A   Clear
11:34 PM 51.8 °F 51.8 °F 100% 30.01 in 1.8 mi SW 5.8 mph - N/A   Clear
11:35 PM 51.8 °F 51.8 °F 100% 30.01 in 2.0 mi WSW 5.8 mph - N/A   Clear
11:37 PM 51.8 °F 51.8 °F 100% 30.01 in 3.0 mi WSW 5.8 mph - N/A   Clear
11:39 PM 51.8 °F 51.8 °F 100% 30.01 in 5.0 mi WSW 5.8 mph - N/A   Clear
11:55 PM 51.6 °F 51.6 °F 100% 30.01 in 10.0 mi SW 4.6 mph - N/A   Clear